period_start,C,m1,H,J0,J1,J2,J3,J4,J5,JA,JB,JC,JD,JJ,JK,JN,#
2015-03-08 00:00:04,0.12,1.92,0.00,18.25,23.24,26.26,4.84,28.45,1014.24,2048.03,2751.40,2807.09,3028.40,349.72,352.26,15.04,0000 0000 0000 0000 000000
2015-03-08 00:05:05,0.12,1.93,0.00,18.21,23.24,26.25,4.94,28.52,1014.19,2048.05,2750.23,2806.16,3027.39,350.46,353.04,15.07,0000 0000 0000 0000 000000
2015-03-08 00:10:06,0.13,1.93,0.00,18.10,23.24,26.31,4.92,28.43,1014.17,2048.02,2748.93,2805.15,3026.32,349.99,352.67,15.10,0000 0000 0000 0000 000000
2015-03-08 00:15:08,0.13,1.93,0.00,18.17,23.24,26.30,4.90,28.32,1014.36,2048.03,2747.63,2804.21,3025.30,350.18,352.86,15.13,0000 0000 0000 0000 000000
2015-03-08 00:20:09,0.13,1.94,0.00,18.26,23.24,26.39,4.86,28.46,1014.48,2048.05,2746.17,2803.12,3024.06,349.45,352.00,15.15,0000 0000 0000 0000 000000
2015-03-08 00:25:10,0.13,1.94,0.00,18.14,23.24,26.37,4.93,28.25,1014.33,2048.07,2744.95,2802.21,3023.10,349.81,352.46,15.18,0000 0000 0000 0000 000000
2015-03-08 00:30:11,0.13,1.94,0.00,18.23,23.24,26.40,4.89,28.27,1014.29,2048.06,2743.66,2801.31,3021.97,350.03,352.61,15.21,0000 0000 0000 0000 000000
2015-03-08 00:35:12,0.13,1.95,0.00,18.33,23.24,26.35,4.85,28.33,1014.42,2048.07,2742.41,2800.30,3020.92,350.09,352.52,15.24,0000 0000 0000 0000 000000
2015-03-08 00:40:13,0.14,1.95,0.00,18.15,23.24,26.37,4.90,28.44,1014.43,2048.07,2741.05,2799.45,3019.85,350.29,352.95,15.27,0000 0000 0000 0000 000000
2015-03-08 00:45:15,0.13,1.96,0.00,18.31,23.24,26.45,4.85,28.37,1014.71,2048.05,2739.79,2798.33,3018.82,349.49,352.43,15.30,0000 0000 0000 0000 000000
2015-03-08 00:50:16,0.13,1.96,0.00,18.40,23.24,26.47,4.91,28.52,1014.52,2048.06,2738.59,2797.47,3017.79,350.21,352.62,15.33,0000 0000 0000 0000 000000
2015-03-08 00:55:17,0.13,1.96,0.00,18.16,23.24,26.50,4.86,28.23,1014.66,2048.04,2737.30,2796.48,3016.69,350.20,352.78,15.36,0000 0000 0000 0000 000000
2015-03-08 01:00:18,0.13,1.97,0.00,18.29,23.25,26.47,4.90,28.38,1014.65,2048.05,2735.93,2795.55,3015.70,350.22,352.77,15.39,0000 0000 0000 0000 000000
2015-03-08 01:05:19,0.14,1.97,0.00,18.36,23.26,26.50,4.88,28.52,1014.49,2048.06,2734.71,2794.58,3014.61,350.12,352.52,15.42,0000 0000 0000 0000 000000
2015-03-08 01:10:21,0.12,1.98,0.00,18.19,23.27,26.52,4.85,28.63,1014.60,2048.05,2733.45,2793.59,3013.52,349.73,352.37,15.45,0000 0000 0000 0000 000000
2015-03-08 01:15:22,0.12,1.98,0.00,18.30,23.27,26.49,4.92,28.32,1014.67,2048.03,2732.12,2792.68,3012.52,350.20,352.81,15.48,0000 0000 0000 0000 000000
2015-03-08 01:20:23,0.15,1.98,0.00,18.39,23.27,26.51,4.87,28.52,1014.59,2048.03,2730.70,2791.64,3011.36,349.26,351.72,15.51,0000 0000 0000 0000 000000
2015-03-08 01:25:25,0.12,1.99,0.00,18.21,23.29,26.57,4.82,28.34,1014.67,2048.03,2729.41,2790.64,3010.24,349.56,352.08,15.54,0000 0000 0000 0000 000000
2015-03-08 01:30:26,0.12,1.99,0.00,18.32,23.29,26.58,4.89,28.24,1014.68,2048.02,2728.09,2789.65,3009.16,350.47,353.01,15.56,0000 0000 0000 0000 000000
2015-03-08 01:35:27,0.15,2.00,0.00,18.41,23.29,26.57,4.95,28.55,1014.81,2048.02,2726.64,2788.56,3008.08,350.64,353.11,15.59,0000 0000 0000 0000 000000
2015-03-08 01:40:29,0.14,2.00,0.00,18.27,23.30,26.61,4.88,28.34,1014.83,2048.02,2725.28,2787.52,3006.93,350.10,352.60,15.62,0000 0000 0000 0000 000000
2015-03-08 01:45:30,0.14,2.00,0.00,18.41,23.32,26.61,4.87,28.26,1014.83,2048.01,2723.84,2786.45,3005.84,349.82,352.39,15.65,0000 0000 0000 0000 000000
2015-03-08 01:50:31,0.14,2.01,0.00,18.33,23.32,26.61,4.90,28.31,1015.07,2048.00,2722.60,2785.43,3004.74,349.97,352.70,15.68,0000 0000 0000 0000 000000
2015-03-08 01:55:32,0.14,2.01,0.00,18.31,23.32,26.62,4.91,28.22,1015.14,2048.00,2721.12,2784.34,3003.55,350.72,353.43,15.71,0000 0000 0000 0000 000000
2015-03-08 02:00:34,0.14,2.02,0.00,18.47,23.34,26.65,4.82,28.22,1015.18,2048.00,2719.76,2783.35,3002.40,349.40,352.19,15.74,0000 0000 0000 0000 000000
2015-03-08 02:05:35,0.13,2.02,0.00,18.35,23.34,26.65,4.87,28.27,1015.21,2048.00,2718.44,2782.24,3001.28,349.63,352.62,15.77,0000 0000 0000 0000 000000
2015-03-08 02:10:36,0.13,2.03,0.00,18.49,23.35,26.66,4.93,28.21,1015.24,2048.00,2717.02,2781.30,3000.21,350.71,353.23,15.80,0000 0000 0000 0000 000000
2015-03-08 02:15:37,0.15,2.03,0.00,18.47,23.37,26.70,4.90,28.16,1015.17,2048.00,2715.59,2780.23,2999.03,350.29,352.94,15.83,0000 0000 0000 0000 000000
2015-03-08 02:20:39,0.14,2.03,0.00,18.43,23.37,26.71,4.89,28.22,1015.11,2047.98,2714.11,2779.10,2997.82,350.04,352.86,15.86,0000 0000 0000 0000 000000
2015-03-08 02:25:40,0.16,2.04,0.00,18.53,23.38,26.74,4.85,27.98,1015.25,2047.98,2712.71,2778.02,2996.57,349.52,352.04,15.89,0000 0000 0000 0000 000000
2015-03-08 02:30:41,0.14,2.04,0.00,18.48,23.39,26.80,4.92,28.23,1015.31,2047.98,2711.45,2776.98,2995.50,350.77,353.39,15.92,0000 0000 0000 0000 000000
2015-03-08 02:35:43,0.13,2.05,0.00,18.60,23.41,26.77,4.90,28.24,1015.40,2047.97,2709.98,2775.95,2994.33,350.42,352.72,15.95,0000 0000 0000 0000 000000
2015-03-08 02:40:43,0.18,2.05,0.00,18.54,23.42,26.83,4.87,28.30,1015.56,2047.97,2708.50,2774.75,2993.01,349.60,352.31,15.97,0000 0000 0000 0000 000000
2015-03-08 02:45:45,0.12,2.06,0.00,18.54,23.44,26.84,4.96,28.46,1015.36,2047.93,2707.18,2773.74,2991.84,350.57,352.81,16.00,0000 0000 0000 0000 000000
2015-03-08 02:50:46,0.13,2.06,0.00,18.70,23.46,26.85,4.87,28.19,1015.22,2047.76,2705.81,2772.70,2990.70,350.25,352.57,16.03,0000 0000 0000 0000 000000
2015-03-08 02:55:47,0.10,2.06,0.00,18.60,23.47,26.90,4.87,28.14,1015.50,2047.55,2704.45,2771.61,2989.52,349.52,352.13,16.06,0000 0000 0000 0000 000000
2015-03-08 03:00:49,0.09,2.07,0.00,18.67,23.49,26.91,4.87,28.23,1015.63,2047.22,2703.03,2770.52,2988.32,349.97,352.48,16.09,0000 0000 0000 0000 000000
2015-03-08 03:05:50,0.14,2.07,0.00,18.74,23.51,26.93,4.93,28.17,1015.61,2047.06,2701.56,2769.40,2986.99,350.51,352.93,16.12,0000 0000 0000 0000 000000
2015-03-08 03:10:51,0.14,2.07,0.00,18.64,23.52,26.99,4.83,28.34,1015.64,2047.04,2700.02,2768.28,2985.78,350.16,352.67,16.15,0000 0000 0000 0000 000000
2015-03-08 03:15:52,0.16,2.08,0.00,18.75,23.54,26.98,4.95,28.27,1015.64,2047.01,2698.54,2767.11,2984.52,350.78,353.16,16.18,0000 0000 0000 0000 000000
2015-03-08 03:20:54,0.14,2.08,0.00,18.79,23.56,27.00,4.87,28.11,1015.64,2047.01,2697.18,2765.96,2983.39,349.77,352.06,16.21,0000 0000 0000 0000 000000
2015-03-08 03:25:55,0.15,2.09,0.00,18.74,23.58,27.04,4.84,28.23,1015.64,2047.00,2695.76,2764.86,2982.05,349.58,352.08,16.24,0000 0000 0000 0000 000000
2015-03-08 03:30:56,0.16,2.09,0.00,18.82,23.60,27.03,4.89,28.18,1015.64,2047.00,2694.38,2763.75,2980.80,350.16,352.52,16.27,0000 0000 0000 0000 000000
2015-03-08 03:35:58,0.15,2.10,0.00,18.83,23.62,27.06,4.97,28.36,1015.64,2047.00,2692.88,2762.66,2979.64,350.90,353.26,16.30,0000 0000 0000 0000 000000
2015-03-08 03:40:59,0.16,2.10,0.00,18.83,23.65,27.08,4.89,28.29,1015.64,2047.00,2691.45,2761.50,2978.39,350.62,352.67,16.33,0000 0000 0000 0000 000000
2015-03-08 03:46:01,0.13,2.10,0.00,18.92,23.67,27.12,4.90,28.24,1015.65,2047.00,2689.97,2760.48,2977.18,350.39,352.52,16.36,0000 0000 0000 0000 000000
2015-03-08 03:51:02,0.15,2.11,0.00,18.94,23.69,27.14,4.90,28.22,1015.64,2047.00,2688.61,2759.35,2975.93,350.16,352.29,16.38,0000 0000 0000 0000 000000
2015-03-08 03:56:04,0.15,2.11,0.00,18.90,23.71,27.17,4.84,28.33,1015.65,2047.00,2687.18,2758.18,2974.63,349.68,351.79,16.41,0000 0000 0000 0000 000000
2015-03-08 04:01:05,0.15,2.12,0.00,18.98,23.74,27.15,4.82,28.26,1015.65,2046.98,2685.77,2757.04,2973.35,349.65,351.87,16.44,0000 0000 0000 0000 000000
2015-03-08 04:06:06,0.15,2.12,0.00,18.99,23.76,27.20,4.93,28.23,1015.66,2046.96,2684.31,2755.91,2972.08,350.11,352.13,16.47,0000 0000 0000 0000 000000
2015-03-08 04:11:07,0.17,2.13,0.00,18.96,23.78,27.19,4.87,27.82,1015.66,2046.95,2682.76,2754.74,2970.82,349.92,352.05,16.50,0000 0000 0000 0000 000000
2015-03-08 04:16:08,0.12,2.13,0.00,19.07,23.81,27.19,4.92,28.06,1015.64,2046.81,2681.35,2753.61,2969.62,350.48,352.42,16.53,0000 0000 0000 0000 000000
2015-03-08 04:21:10,0.08,2.13,0.00,19.08,23.83,27.21,4.85,28.12,1015.63,2046.40,2679.87,2752.50,2968.38,350.00,352.00,16.56,0000 0000 0000 0000 000000
2015-03-08 04:26:11,0.10,2.14,0.00,19.06,23.85,27.26,4.87,28.18,1015.64,2046.09,2678.45,2751.42,2967.09,349.94,351.87,16.59,0000 0000 0000 0000 000000
2015-03-08 04:31:12,0.14,2.14,0.00,19.08,23.87,27.27,4.81,28.07,1015.65,2046.04,2677.05,2750.51,2965.89,349.79,351.77,16.62,0000 0000 0000 0000 000000
2015-03-08 04:36:14,0.15,2.15,0.00,19.17,23.90,27.27,4.85,27.90,1015.69,2046.00,2675.57,2749.36,2964.67,350.29,352.21,16.65,0000 0000 0000 0000 000000
2015-03-08 04:41:15,0.16,2.15,0.00,19.12,23.92,27.34,4.89,28.07,1015.65,2046.00,2673.90,2748.17,2963.42,349.66,351.91,16.68,0000 0000 0000 0000 000000
2015-03-08 04:46:16,0.13,2.16,0.00,19.14,23.95,27.35,4.83,28.10,1015.67,2046.00,2672.63,2747.10,2962.20,350.52,352.41,16.71,0000 0000 0000 0000 000000
2015-03-08 04:51:17,0.14,2.16,0.00,19.23,23.97,27.34,4.84,28.18,1015.93,2046.00,2671.38,2746.01,2960.94,350.06,351.85,16.74,0000 0000 0000 0000 000000
2015-03-08 04:56:18,0.16,2.16,0.00,19.22,24.00,27.41,4.87,27.98,1016.05,2045.97,2669.85,2744.88,2959.69,350.09,352.04,16.77,0000 0000 0000 0000 000000
2015-03-08 05:01:20,0.15,2.17,0.00,19.26,24.02,27.39,4.87,28.27,1016.05,2045.97,2668.52,2743.82,2958.52,350.07,352.09,16.79,0000 0000 0000 0000 000000
2015-03-08 05:06:21,0.14,2.17,0.00,19.30,24.05,27.42,4.82,28.13,1016.09,2045.96,2667.21,2742.78,2957.36,349.65,351.50,16.82,0000 0000 0000 0000 000000
2015-03-08 05:11:22,0.08,2.18,0.00,19.32,24.07,27.46,4.87,28.13,1016.05,2045.64,2665.79,2741.65,2956.18,350.14,352.16,16.85,0000 0000 0000 0000 000000
2015-03-08 05:16:24,0.09,2.18,0.00,19.30,24.10,27.45,4.86,28.26,1015.95,2045.23,2664.41,2740.58,2954.91,349.49,351.49,16.88,0000 0000 0000 0000 000000
2015-03-08 05:21:25,0.13,2.18,0.00,19.30,24.12,27.50,4.87,28.23,1016.05,2045.05,2663.00,2739.53,2953.73,350.22,352.01,16.91,0000 0000 0000 0000 000000
2015-03-08 05:26:26,0.15,2.19,0.00,19.37,24.15,27.56,4.81,28.25,1016.12,2045.03,2661.62,2738.41,2952.53,349.99,351.92,16.94,0000 0000 0000 0000 000000
2015-03-08 05:31:28,0.13,2.19,0.00,19.40,24.17,27.54,4.91,28.10,1016.11,2045.01,2660.28,2737.35,2951.42,350.32,351.98,16.97,0000 0000 0000 0000 000000
2015-03-08 05:36:29,0.15,2.20,0.00,19.45,24.20,27.63,4.94,28.20,1016.10,2045.00,2658.84,2736.24,2950.12,350.59,352.35,17.00,0000 0000 0000 0000 000000
2015-03-08 05:41:30,0.17,2.20,0.00,19.45,24.22,27.63,4.94,28.18,1016.11,2044.99,2657.30,2735.02,2948.77,350.19,351.97,17.03,0000 0000 0000 0000 000000
2015-03-08 05:46:32,0.14,2.21,0.00,19.50,24.25,27.66,4.86,28.10,1016.11,2044.97,2655.92,2733.90,2947.61,350.09,351.76,17.06,0000 0000 0000 0000 000000
2015-03-08 05:51:33,0.14,2.21,0.00,19.48,24.27,27.67,4.91,28.10,1016.11,2044.96,2654.54,2732.91,2946.47,350.12,351.72,17.09,0000 0000 0000 0000 000000
2015-03-08 05:56:34,0.10,2.21,0.00,19.49,24.30,27.67,4.87,28.20,1016.14,2044.79,2653.23,2731.82,2945.33,349.74,351.35,17.12,0000 0000 0000 0000 000000
2015-03-08 06:01:35,0.08,2.22,0.00,19.52,24.32,27.70,4.88,28.17,1016.15,2044.41,2651.80,2730.71,2944.18,349.48,351.27,17.15,0000 0000 0000 0000 000000
2015-03-08 06:06:36,0.11,2.22,0.00,19.61,24.35,27.77,4.78,28.14,1016.16,2044.16,2650.50,2729.73,2943.01,350.25,351.81,17.18,0000 0000 0000 0000 000000
2015-03-08 06:11:37,0.14,2.22,0.00,19.60,24.37,27.77,4.91,28.03,1016.26,2044.02,2649.13,2728.59,2941.81,350.03,351.63,17.20,0000 0000 0000 0000 000000
2015-03-08 06:16:39,0.17,2.23,0.00,19.59,24.40,27.78,4.91,28.16,1016.48,2044.00,2647.71,2727.55,2940.64,350.58,352.31,17.23,0000 0000 0000 0000 000000
2015-03-08 06:21:40,0.14,2.23,0.00,19.58,24.42,27.80,4.82,27.93,1016.61,2044.00,2646.29,2726.39,2939.44,349.68,351.22,17.26,0000 0000 0000 0000 000000
2015-03-08 06:26:42,0.13,2.24,0.00,19.57,24.44,27.79,4.88,28.13,1016.62,2044.00,2644.92,2725.32,2938.20,350.01,351.77,17.29,0000 0000 0000 0000 000000
2015-03-08 06:31:43,0.15,2.24,0.00,19.63,24.47,27.82,4.84,28.02,1016.62,2043.99,2643.60,2724.32,2937.08,349.93,351.43,17.32,0000 0000 0000 0000 000000
2015-03-08 06:36:44,0.14,2.24,0.00,19.69,24.49,27.85,4.81,27.99,1016.62,2043.96,2642.28,2723.28,2935.90,349.86,351.53,17.35,0000 0000 0000 0000 000000
2015-03-08 06:41:46,0.15,2.25,0.00,19.70,24.51,27.88,4.92,28.00,1016.62,2043.85,2640.69,2722.13,2934.68,350.33,352.04,17.38,0000 0000 0000 0000 000000
2015-03-08 06:46:47,0.12,2.25,0.00,19.67,24.54,27.88,4.90,27.99,1016.62,2043.86,2639.52,2721.16,2933.61,350.04,351.68,17.41,0000 0000 0000 0000 000000
2015-03-08 06:51:48,0.09,2.26,0.00,19.71,24.56,27.89,4.86,28.27,1016.62,2043.66,2638.20,2720.13,2932.51,350.10,351.60,17.44,0000 0000 0000 0000 000000
2015-03-08 06:56:50,0.11,2.26,0.00,19.74,24.59,27.96,4.84,27.89,1016.61,2043.24,2636.80,2719.02,2931.33,350.16,351.87,17.47,0000 0000 0000 0000 000000
2015-03-08 07:01:51,0.10,2.26,0.00,19.72,24.61,27.97,4.85,27.97,1016.61,2043.08,2635.43,2717.97,2930.14,349.38,351.30,17.50,0000 0000 0000 0000 000000
2015-03-08 07:06:52,0.13,2.27,0.00,19.71,24.63,28.02,4.86,28.07,1016.62,2043.03,2634.07,2716.93,2929.02,349.99,351.33,17.53,0000 0000 0000 0000 000000
2015-03-08 07:11:53,0.15,2.27,0.00,19.72,24.66,27.88,4.84,27.94,1016.62,2043.01,2632.68,2715.89,2927.89,349.87,351.51,17.56,0000 0000 0000 0000 000000
2015-03-08 07:16:55,0.16,2.27,0.00,19.76,24.67,27.95,4.87,28.11,1016.62,2043.00,2631.37,2714.78,2926.69,350.05,351.65,17.59,0000 0000 0000 0000 000000
2015-03-08 07:21:56,0.14,2.28,0.00,19.74,24.70,28.01,4.83,27.99,1016.63,2043.00,2630.03,2713.72,2925.51,350.44,351.93,17.61,0000 0000 0000 0000 000000
2015-03-08 07:26:57,0.14,2.28,0.00,19.74,24.72,28.01,4.86,28.02,1016.63,2042.99,2628.71,2712.73,2924.44,349.68,351.28,17.64,0000 0000 0000 0000 000000
2015-03-08 07:31:59,0.14,2.29,0.00,19.74,24.74,28.00,4.86,28.18,1016.74,2042.99,2627.45,2711.72,2923.35,349.78,351.42,17.67,0000 0000 0000 0000 000000
2015-03-08 07:37:00,0.14,2.29,0.00,19.70,24.76,27.88,4.88,28.02,1016.87,2042.98,2626.08,2710.67,2922.21,349.92,351.68,17.70,0000 0000 0000 0000 000000
2015-03-08 07:42:01,0.15,2.30,0.00,19.74,24.77,27.97,4.83,28.17,1016.87,2042.92,2624.63,2709.60,2920.96,349.44,351.08,17.73,0000 0000 0000 0000 000000
2015-03-08 07:47:03,0.13,2.30,0.00,19.72,24.80,28.04,4.81,27.91,1016.69,2042.87,2623.41,2708.67,2919.91,350.01,351.62,17.76,0000 0000 0000 0000 000000
2015-03-08 07:52:04,0.08,2.30,0.00,19.76,24.82,28.06,4.87,28.09,1016.71,2042.68,2622.37,2707.62,2918.75,349.00,350.70,17.79,0000 0000 0000 0000 000000
2015-03-08 07:57:05,0.07,2.31,0.00,19.78,24.83,28.04,4.94,28.26,1016.79,2042.29,2621.04,2706.62,2917.67,350.12,351.73,17.82,0000 0000 0000 0000 000000
2015-03-08 08:02:07,0.12,2.31,0.00,19.78,24.85,27.98,4.88,28.12,1016.82,2042.04,2619.74,2705.56,2916.52,350.24,351.82,17.85,0000 0000 0000 0000 000000
2015-03-08 08:07:08,0.14,2.31,0.00,19.76,24.87,27.93,4.87,28.10,1016.98,2042.03,2618.50,2704.58,2915.32,350.20,351.83,17.88,0000 0000 0000 0000 000000
2015-03-08 08:12:09,0.13,2.32,0.00,19.78,24.89,28.06,4.86,28.08,1017.01,2042.02,2617.20,2703.56,2914.26,349.85,351.47,17.91,0000 0000 0000 0000 000000
2015-03-08 08:17:10,0.14,2.32,0.00,19.78,24.90,28.00,4.89,28.00,1017.11,2042.00,2615.88,2702.54,2913.15,350.13,351.86,17.94,0000 0000 0000 0000 000000
2015-03-08 08:22:12,0.13,2.33,0.00,19.78,24.92,28.09,4.91,28.18,1017.20,2042.00,2614.70,2701.62,2912.13,350.65,352.36,17.97,0000 0000 0000 0000 000000
2015-03-08 08:27:13,0.15,2.33,0.00,19.78,24.93,28.09,4.85,28.16,1017.32,2042.00,2613.42,2700.56,2910.93,349.94,351.65,18.00,0000 0000 0000 0000 000000
2015-03-08 08:32:14,0.15,2.33,0.00,19.78,24.95,27.99,4.85,28.19,1017.55,2042.00,2612.09,2699.54,2909.74,349.45,351.26,18.02,0000 0000 0000 0000 000000
2015-03-08 08:37:16,0.13,2.34,0.00,19.83,24.96,28.02,4.89,28.07,1017.53,2041.99,2610.81,2698.58,2908.67,349.75,351.59,18.05,0000 0000 0000 0000 000000
2015-03-08 08:42:17,0.14,2.34,0.00,19.81,24.97,28.03,4.91,28.08,1017.58,2041.97,2609.52,2697.58,2907.65,350.26,352.07,18.08,0000 0000 0000 0000 000000
2015-03-08 08:47:19,0.10,2.35,0.00,19.82,24.97,28.11,4.91,28.14,1017.59,2041.98,2608.42,2696.78,2906.72,350.59,352.41,18.11,0000 0000 0000 0000 000000
2015-03-08 08:52:20,0.12,2.35,0.00,19.80,25.00,28.15,4.86,28.23,1017.60,2041.97,2607.30,2695.88,2905.62,350.16,351.85,18.14,0000 0000 0000 0000 000000
2015-03-08 08:57:21,0.11,2.35,0.00,19.82,25.00,28.08,4.92,28.24,1017.60,2041.89,2606.15,2694.93,2904.62,350.32,352.12,18.17,0000 0000 0000 0000 000000
2015-03-08 09:02:23,0.08,2.36,0.00,19.91,25.02,28.01,4.84,28.21,1017.60,2041.73,2604.99,2694.04,2903.61,349.39,351.05,18.20,0000 0000 0000 0000 000000
2015-03-08 09:07:24,0.11,2.36,0.00,19.93,25.02,28.11,4.84,28.19,1017.60,2041.52,2603.88,2693.16,2902.58,349.39,350.96,18.23,0000 0000 0000 0000 000000
2015-03-08 09:12:25,0.09,2.36,0.00,19.92,25.04,28.18,4.88,28.27,1017.76,2041.34,2602.75,2692.26,2901.63,349.93,351.93,18.26,0000 0000 0000 0000 000000
2015-03-08 09:17:27,0.11,2.37,0.00,19.94,25.05,28.26,4.86,28.27,1017.90,2041.13,2601.54,2691.36,2900.65,349.66,351.42,18.29,0000 0000 0000 0000 000000
2015-03-08 09:22:28,0.12,2.37,0.00,19.93,25.06,28.27,4.86,28.38,1017.68,2041.08,2600.43,2690.52,2899.65,349.59,351.50,18.32,0000 0000 0000 0000 000000
2015-03-08 09:27:30,0.11,2.37,0.00,19.95,25.07,28.22,4.92,28.60,1017.89,2041.04,2599.32,2689.68,2898.74,350.26,352.07,18.35,0000 0000 0000 0000 000000
2015-03-08 09:32:31,0.12,2.38,0.00,19.92,25.07,28.32,4.89,28.50,1018.09,2041.02,2598.20,2688.77,2897.72,350.50,352.47,18.38,0000 0000 0000 0000 000000
2015-03-08 09:37:32,0.10,2.38,0.00,19.94,25.09,28.31,4.88,28.33,1018.08,2041.02,2596.98,2687.92,2896.80,350.22,351.95,18.41,0000 0000 0000 0000 000000
2015-03-08 09:42:34,0.14,2.38,0.00,19.95,25.10,28.34,4.82,28.48,1018.08,2041.02,2595.74,2687.04,2895.82,349.50,351.21,18.44,0000 0000 0000 0000 000000
2015-03-08 09:47:35,0.14,2.39,0.00,19.93,25.10,28.31,4.88,28.11,1018.13,2041.00,2594.59,2686.13,2894.79,350.23,351.95,18.46,0000 0000 0000 0000 000000
2015-03-08 09:52:36,0.13,2.39,0.00,19.96,25.11,28.23,4.92,28.32,1018.26,2041.00,2593.42,2685.29,2893.81,350.41,352.25,18.49,0000 0000 0000 0000 000000
2015-03-08 09:57:37,0.14,2.40,0.00,19.97,25.12,28.30,4.81,28.18,1018.20,2041.00,2592.16,2684.31,2892.77,349.70,351.33,18.52,0000 0000 0000 0000 000000
2015-03-08 10:02:38,0.14,2.40,0.00,20.01,25.12,28.32,4.89,28.13,1018.13,2041.00,2590.85,2683.44,2891.82,350.72,352.49,18.55,0000 0000 0000 0000 000000
2015-03-08 10:07:39,0.13,2.40,0.00,20.00,25.14,28.34,4.86,28.25,1018.09,2041.00,2589.65,2682.56,2890.87,350.08,351.82,18.58,0000 0000 0000 0000 000000
2015-03-08 10:12:41,0.11,2.41,0.00,20.00,25.15,28.31,4.88,28.19,1018.09,2040.99,2588.59,2681.77,2889.91,350.09,351.81,18.61,0000 0000 0000 0000 000000
2015-03-08 10:17:42,0.11,2.41,0.00,20.10,25.15,28.21,4.87,28.32,1018.07,2040.99,2587.43,2680.90,2888.96,349.79,351.27,18.64,0000 0000 0000 0000 000000
2015-03-08 10:22:44,0.15,2.41,0.00,20.02,25.16,28.25,4.88,28.44,1018.01,2040.99,2586.20,2679.85,2887.82,350.34,352.25,18.67,0000 0000 0000 0000 000000
2015-03-08 10:27:45,0.14,2.42,0.00,19.99,25.17,28.33,4.90,28.54,1018.06,2040.97,2584.91,2678.86,2886.69,350.11,351.78,18.70,0000 0000 0000 0000 000000
2015-03-08 10:32:46,0.12,2.42,0.00,19.98,25.17,28.37,4.86,28.32,1018.06,2040.98,2583.71,2677.97,2885.72,350.21,351.91,18.73,0000 0000 0000 0000 000000
2015-03-08 10:37:47,0.13,2.43,0.00,20.01,25.17,28.37,4.92,28.30,1018.08,2040.98,2582.48,2677.04,2884.73,350.66,352.34,18.76,0000 0000 0000 0000 000000
2015-03-08 10:42:48,0.13,2.43,0.00,20.00,25.19,28.33,4.95,28.28,1018.07,2040.95,2581.23,2676.11,2883.76,350.32,351.96,18.79,0000 0000 0000 0000 000000
2015-03-08 10:47:50,0.12,2.43,0.00,20.02,25.20,28.29,4.87,28.41,1017.72,2040.97,2580.17,2675.33,2882.89,350.39,352.14,18.82,0000 0000 0000 0000 000000
2015-03-08 10:52:51,0.12,2.44,0.00,19.98,25.20,28.30,4.95,28.48,1017.72,2040.94,2578.98,2674.42,2881.82,350.71,352.37,18.85,0000 0000 0000 0000 000000
2015-03-08 10:57:53,0.11,2.44,0.00,19.97,25.21,28.31,4.86,28.46,1018.04,2040.88,2577.86,2673.56,2880.90,349.87,351.54,18.87,0000 0000 0000 0000 000000
2015-03-08 11:02:54,0.12,2.45,0.00,20.01,25.22,28.38,4.84,28.23,1018.35,2040.87,2576.75,2672.73,2879.99,350.44,351.95,18.90,0000 0000 0000 0000 000000
2015-03-08 11:07:55,0.11,2.45,0.00,20.01,25.22,28.39,4.83,28.26,1018.54,2040.85,2575.61,2671.94,2879.09,349.27,351.37,18.93,0000 0000 0000 0000 000000
2015-03-08 11:12:57,0.10,2.45,0.00,20.02,25.22,28.29,4.84,28.17,1018.57,2040.75,2574.49,2671.07,2878.27,349.34,351.26,18.96,0000 0000 0000 0000 000000
2015-03-08 11:17:58,0.09,2.46,0.00,20.04,25.22,28.34,4.92,28.11,1018.54,2040.53,2573.30,2670.16,2877.29,350.09,351.96,18.99,0000 0000 0000 0000 000000
2015-03-08 11:22:59,0.12,2.46,0.00,20.09,25.23,28.41,4.86,28.14,1018.50,2040.40,2572.13,2669.26,2876.34,349.74,351.67,19.02,0000 0000 0000 0000 000000
2015-03-08 11:28:01,0.10,2.46,0.00,20.06,25.24,28.43,4.86,28.14,1018.50,2040.23,2570.97,2668.41,2875.36,350.43,352.15,19.05,0000 0000 0000 0000 000000
2015-03-08 11:33:03,0.11,2.46,0.00,20.09,25.25,28.44,4.85,28.08,1018.56,2040.13,2569.83,2667.62,2874.49,349.68,351.33,19.08,0000 0000 0000 0000 000000
2015-03-08 11:38:04,0.11,2.47,0.00,20.14,25.25,28.40,4.88,28.03,1018.57,2040.08,2568.70,2666.75,2873.55,349.68,351.68,19.11,0000 0000 0000 0000 000000
2015-03-08 11:43:06,0.12,2.47,0.00,20.10,25.25,28.33,4.83,27.97,1018.56,2040.05,2567.42,2665.93,2872.54,350.93,352.62,19.14,0000 0000 0000 0000 000000
2015-03-08 11:48:07,0.11,2.47,0.00,20.13,25.27,28.42,4.86,28.07,1018.57,2040.05,2566.41,2665.05,2871.67,349.58,351.34,19.17,0000 0000 0000 0000 000000
2015-03-08 11:53:08,0.12,2.48,0.00,20.18,25.27,28.42,4.83,28.05,1018.57,2040.03,2565.24,2664.13,2870.73,349.61,351.12,19.20,0000 0000 0000 0000 000000
2015-03-08 11:58:09,0.13,2.48,0.00,20.23,25.28,28.49,4.81,27.98,1018.57,2040.04,2564.07,2663.30,2869.82,349.32,351.03,19.23,0000 0000 0000 0000 000000
2015-03-08 12:03:10,0.14,2.49,0.00,20.24,25.30,28.52,4.89,28.09,1018.60,2040.01,2562.83,2662.39,2868.83,350.24,351.87,19.26,0000 0000 0000 0000 000000
2015-03-08 12:08:12,0.13,2.49,0.00,20.29,25.30,28.56,4.82,28.07,1018.61,2040.00,2561.69,2661.51,2867.87,349.66,351.24,19.28,0000 0000 0000 0000 000000
2015-03-08 12:13:13,0.13,2.49,0.00,20.28,25.31,28.60,4.84,28.10,1018.74,2040.00,2560.53,2660.66,2866.89,349.59,351.19,19.31,0000 0000 0000 0000 000000
2015-03-08 12:18:14,0.11,2.50,0.00,20.32,25.32,28.60,4.86,28.20,1018.87,2040.00,2559.41,2659.83,2865.94,349.46,351.30,19.34,0000 0000 0000 0000 000000
2015-03-08 12:23:16,0.12,2.50,0.00,20.30,25.33,28.55,4.87,28.24,1019.02,2040.00,2558.41,2658.96,2864.99,350.16,351.79,19.37,0000 0000 0000 0000 000000
2015-03-08 12:28:17,0.13,2.51,0.00,20.33,25.35,28.54,4.88,28.33,1019.05,2040.00,2557.30,2658.02,2863.96,349.96,351.58,19.40,0000 0000 0000 0000 000000
2015-03-08 12:33:19,0.13,2.51,0.00,20.36,25.35,28.59,4.88,28.23,1019.07,2040.00,2556.11,2657.10,2862.99,349.75,351.39,19.43,0000 0000 0000 0000 000000
2015-03-08 12:38:20,0.13,2.51,0.00,20.34,25.37,28.63,4.88,28.13,1019.07,2040.00,2554.93,2656.22,2862.03,349.91,351.98,19.46,0000 0000 0000 0000 000000
2015-03-08 12:43:21,0.14,2.52,0.00,20.42,25.37,28.66,4.88,28.02,1019.08,2040.00,2553.77,2655.41,2861.08,349.37,350.94,19.49,0000 0000 0000 0000 000000
2015-03-08 12:48:23,0.14,2.52,0.00,20.36,25.40,28.69,4.89,28.08,1019.11,2040.00,2552.60,2654.49,2860.15,349.52,351.16,19.52,0000 0000 0000 0000 000000
2015-03-08 12:53:24,0.12,2.52,0.00,20.39,25.40,28.72,4.83,28.01,1019.42,2039.98,2551.46,2653.61,2859.26,348.82,350.70,19.55,0000 0000 0000 0000 000000
2015-03-08 12:58:25,0.10,2.53,0.00,20.37,25.42,28.68,4.81,27.94,1019.52,2039.98,2550.32,2652.88,2858.30,349.81,351.72,19.58,0000 0000 0000 0000 000000